SWR4TH LSZH-LSGG

Flight info

Callsign SWR4TH
Flight time N/A
Altitude 18000
Route VEBIT T50 ROTOS Z669 ULMES
Aircraft A343/H-SDE2E3FGHIJ4J5M1RWXY/LB1D1

Departure

Time 2026-05-05 20:22
Airport Zürich Airport (LSZH)

Arrival

Time N/A
Airport Geneva International Airport (LSGG)
Time Latitude Longitude Altitude Speed Heading
2026-05-05 19:50 47.44785 8.56173 1375 ft 0 kts 65°
2026-05-05 19:56 47.44783 8.56167 1411 ft 2 kts 64°
2026-05-05 19:56 47.44774 8.56147 1412 ft 2 kts 70°
2026-05-05 19:56 47.44765 8.56127 1407 ft 2 kts 65°
2026-05-05 19:57 47.44756 8.56108 1411 ft 2 kts 33°
2026-05-05 19:57 47.44746 8.56102 1412 ft 2 kts 46°
2026-05-05 19:57 47.44726 8.56090 1412 ft 2 kts 342°
2026-05-05 19:57 47.44711 8.56095 1412 ft 2 kts 338°
2026-05-05 19:58 47.44702 8.56096 1412 ft 0 kts 308°
2026-05-05 19:58 47.44701 8.56096 1412 ft 0 kts 306°
2026-05-05 19:59 47.44702 8.56094 1412 ft 0 kts 306°
2026-05-05 19:59 47.44703 8.56092 1412 ft 0 kts 306°
2026-05-05 20:02 47.44704 8.56090 1402 ft 1 kts 306°
2026-05-05 20:03 47.44707 8.56084 1402 ft 0 kts 307°
2026-05-05 20:03 47.44711 8.56079 1402 ft 2 kts 313°
2026-05-05 20:03 47.44724 8.56069 1409 ft 3 kts 336°
2026-05-05 20:03 47.44758 8.56055 1408 ft 7 kts 344°
2026-05-05 20:04 47.44813 8.56023 1411 ft 9 kts 336°
2026-05-05 20:04 47.44874 8.55982 1413 ft 10 kts 335°
2026-05-05 20:04 47.44914 8.55955 1412 ft 3 kts 334°
2026-05-05 20:04 47.44937 8.55931 1412 ft 4 kts 315°
2026-05-05 20:05 47.44945 8.55906 1411 ft 3 kts 291°
2026-05-05 20:05 47.44950 8.55846 1414 ft 7 kts 275°
2026-05-05 20:05 47.44954 8.55783 1410 ft 6 kts 275°
2026-05-05 20:05 47.44958 8.55725 1412 ft 5 kts 277°
2026-05-05 20:06 47.44972 8.55673 1408 ft 4 kts 312°
2026-05-05 20:06 47.45003 8.55642 1409 ft 6 kts 335°
2026-05-05 20:06 47.45039 8.55617 1412 ft 6 kts 334°
2026-05-05 20:06 47.45079 8.55590 1412 ft 7 kts 336°
2026-05-05 20:07 47.45131 8.55555 1414 ft 10 kts 335°
2026-05-05 20:07 47.45177 8.55526 1411 ft 2 kts 337°
2026-05-05 20:07 47.45208 8.55515 1411 ft 7 kts 355°
2026-05-05 20:07 47.45267 8.55522 1413 ft 9 kts
2026-05-05 20:08 47.45332 8.55530 1413 ft 9 kts 360°
2026-05-05 20:08 47.45394 8.55498 1416 ft 11 kts 334°
2026-05-05 20:08 47.45472 8.55442 1414 ft 11 kts 335°
2026-05-05 20:08 47.45531 8.55402 1415 ft 10 kts 335°
2026-05-05 20:09 47.45600 8.55355 1411 ft 7 kts 335°
2026-05-05 20:09 47.45646 8.55341 1409 ft 4 kts 17°
2026-05-05 20:09 47.45665 8.55376 1414 ft 5 kts 62°
2026-05-05 20:09 47.45669 8.55423 1411 ft 5 kts 91°
2026-05-05 20:10 47.45666 8.55477 1406 ft 6 kts 95°
2026-05-05 20:10 47.45661 8.55543 1411 ft 8 kts 96°
2026-05-05 20:10 47.45654 8.55643 1409 ft 12 kts 96°
2026-05-05 20:10 47.45643 8.55781 1416 ft 15 kts 96°
2026-05-05 20:11 47.45635 8.55910 1415 ft 11 kts 95°
2026-05-05 20:11 47.45629 8.56003 1414 ft 7 kts 95°
2026-05-05 20:11 47.45625 8.56064 1415 ft 7 kts 96°
2026-05-05 20:11 47.45619 8.56125 1415 ft 7 kts 97°
2026-05-05 20:12 47.45618 8.56149 1422 ft 2 kts 96°
2026-05-05 20:12 47.45617 8.56161 1423 ft 0 kts 96°
2026-05-05 20:13 47.45616 8.56167 1423 ft 0 kts 96°
2026-05-05 20:13 47.45616 8.56169 1422 ft 1 kts 96°
2026-05-05 20:13 47.45615 8.56191 1418 ft 4 kts 96°
2026-05-05 20:13 47.45612 8.56227 1416 ft 3 kts 95°
2026-05-05 20:14 47.45617 8.56252 1419 ft 1 kts 60°
2026-05-05 20:14 47.45622 8.56255 1423 ft 0 kts 35°
2026-05-05 20:16 47.45623 8.56256 1423 ft 1 kts 34°
2026-05-05 20:16 47.45637 8.56265 1423 ft 5 kts 21°
2026-05-05 20:17 47.45690 8.56275 1422 ft 11 kts
2026-05-05 20:17 47.45774 8.56287 1425 ft 12 kts
2026-05-05 20:17 47.45840 8.56298 1424 ft 2 kts
2026-05-05 20:17 47.45856 8.56300 1423 ft 5 kts
2026-05-05 20:18 47.45906 8.56307 1419 ft 8 kts
2026-05-05 20:18 47.45938 8.56312 1421 ft 3 kts
2026-05-05 20:18 47.45951 8.56314 1421 ft 0 kts
2026-05-05 20:19 47.45954 8.56315 1421 ft 2 kts
2026-05-05 20:19 47.45990 8.56321 1421 ft 6 kts
2026-05-05 20:19 47.46017 8.56326 1420 ft 2 kts
2026-05-05 20:19 47.46018 8.56326 1420 ft 0 kts
2026-05-05 20:20 47.46019 8.56326 1420 ft 1 kts
2026-05-05 20:20 47.46042 8.56330 1420 ft 7 kts
2026-05-05 20:21 47.46094 8.56347 1422 ft 7 kts 21°
2026-05-05 20:21 47.46124 8.56372 1421 ft 5 kts 31°
2026-05-05 20:21 47.46166 8.56385 1417 ft 8 kts 353°
2026-05-05 20:21 47.46243 8.56299 1418 ft 26 kts 319°
2026-05-05 20:22 47.46557 8.55861 1408 ft 100 kts 316°
2026-05-05 20:22 47.47236 8.54939 1419 ft 159 kts 316°
2026-05-05 20:22 47.48099 8.53769 1978 ft 175 kts 316°
2026-05-05 20:22 47.49071 8.52610 2730 ft 191 kts 320°
2026-05-05 20:23 47.50258 8.51318 3243 ft 225 kts 318°
2026-05-05 20:23 47.51359 8.49661 4108 ft 219 kts 297°
2026-05-05 20:23 47.51764 8.47632 4729 ft 206 kts 272°
2026-05-05 20:23 47.51809 8.45529 4966 ft 204 kts 267°
2026-05-05 20:24 47.51805 8.43426 4986 ft 205 kts 267°
2026-05-05 20:24 47.51648 8.41340 4971 ft 205 kts 253°
2026-05-05 20:24 47.51009 8.39506 4991 ft 206 kts 231°